Regional Weather Roundup
Issued by NWS

Home | Current Version | Previous Version | Graphics & Text | Print | Product List | Glossary Off
Versions: 1 2 3 4 5 6 7 8 9 10 11 12 13 14 15 16 17 18 19 20 21 22 23 24 25 26 27 28 29 30 31 32 33 34 35 36 37 38 39 40 41 42 43 44 45 46 47

000
ASUS43 KDMX 131107
RWRIA

WEATHER ROUNDUP FOR IOWA
NATIONAL WEATHER SERVICE DES MOINES IA
600 AM CDT SUN JUL 13 2014

NOTE: "FAIR" INDICATES FEW OR NO CLOUDS BELOW 12,000 FEET WITH NO
SIGNIFICANT WEATHER AND/OR OBSTRUCTIONS TO VISIBILITY.

* - THESE STATIONS ARE NOT NWS STATIONS...THUS NOT UNDER NWS
QUALITY CONTROL.  THEY ALSO DO NOT REPORT WEATHER SUCH
AS PRECIPITATION OR FOG.

IAZ001>003-012>014-020>022-031>034-043>046-131200-
   NORTHWEST IOWA

CITY           SKY/WX    TMP DP  RH WIND       PRES   REMARKS
CARROLL *      CLEAR     63  63 100 CALM      30.02S FOG
CHEROKEE *     FOG       61  61 100 CALM      30.03R VSB 1/4
DENISON *      FOG       63  63 100 CALM      30.03R VSB 0
LE MARS *      CLEAR     63  63 100 CALM      30.05R FOG
ORANGE CITY *  CLEAR     63  61  94 CALM      30.04R
SHELDON *      PTCLDY    61  61 100 SW5       30.02R FOG
SIOUX CITY     FOG       62  61  96 CALM      30.05R VSB 1/2
SPENCER        CLEAR     63  61  93 SW5       30.02R
STORM LAKE *   FOG       63  63 100 W7        30.04S VSB 0
$$

IAZ055>058-069>071-079>083-090>094-131200-
   SOUTHWEST IOWA

CITY           SKY/WX    TMP DP  RH WIND       PRES   REMARKS
ATLANTIC *     FOG       64  64 100 SW3       30.04S VSB 0
AUDUBON *      FOG       63  61  94 CALM      30.06R VSB 3/4
CLARINDA *     CLEAR     66  66 100 CALM      30.05R FOG
COUNCIL BLFS * CLEAR     66  66 100 W5        30.04S
CRESTON *      CLEAR     64  64 100 NW5       30.04S FOG
HARLAN  *      CLEAR     63  63 100 CALM      30.08R
LAMONI         CLOUDY    68  67  96 CALM      30.02S FOG
RED OAK *      PTCLDY    66  66 100 CALM      30.05R FOG
SHENANDOAH *   FOG       66  66 100 SE3       30.04S VSB 1
$$

IAZ047>049-059>061-072>074-084-131200-
   CENTRAL IOWA

CITY           SKY/WX    TMP DP  RH WIND       PRES   REMARKS
AMES           FOG       63  63 100 SW3       30.01R VSB 3/4
ANKENY *       FOG       66  66 100 W5        30.02R VSB 0
CHARITON *     CLEAR     66  66 100 W5        30.02R FOG
DES MOINES     FOG       67  65  93 W5        30.02R VSB<1/4
GRINNELL*      CLOUDY    66  66 100 W5        30.02R FOG
KNOXVILLE *    FOG       66  64  94 W6        30.00R VSB 1/2
MARSHALLTOWN   FOG       64  63  96 SW5       30.00R VSB 1/4
PELLA *        FOG       66  66 100 NW5       30.02R VSB 1/2
PERRY *          N/A     63  63 100 W5        30.03R FOG
$$

IAZ004>006-015-016-023>025-035-036-131200-
   NORTH CENTRAL IOWA

CITY           SKY/WX    TMP DP  RH WIND       PRES   REMARKS
ALGONA *       CLEAR     64  64 100 SW8       30.00S FOG
CLARION *      FOG       59  59 100 CALM      30.00R VSB 0
ESTHERVILLE    CLEAR     64  62  93 W8        29.99S
FORT DODGE *   CLOUDY    61  59  94 CALM      30.02R VSB<1/4
MASON CITY     CLEAR     66  65  96 W9        29.99S
FOREST CITY *  CLEAR     63  63 100 SW3       29.99S
IOWA FALLS *   FOG       63  61  94 SW5       30.01R VSB 1/4
$$

IAZ007>011-017>019-026>030-037>042-050>054-066-131200-
   NORTHEAST IOWA

CITY           SKY/WX    TMP DP  RH WIND       PRES   REMARKS
CEDAR RAPIDS   CLOUDY    66  65  96 W8        29.98R FOG
CHARLES CITY * CLEAR     61  61 100 W5        29.97F FOG
CLINTON *      CLOUDY    64  63  94 W7        29.98S
DECORAH *        N/A    N/A N/A N/A MISG        N/A
DUBUQUE        CLOUDY    64  64 100 W5        29.97R
MONTICELLO *   CLOUDY    66  66 100 NW8       29.98R
OELWEIN *      FOG       63  63 100 W5        29.99S VSB 0
WATERLOO       FOG       62  62 100 S5        29.97S VSB 1/4
$$

IAZ064-065-067-068-078-131200-
   EAST CENTRAL IOWA

CITY           SKY/WX    TMP DP  RH WIND       PRES   REMARKS
DAVENPORT        N/A     66  64  93 W6        29.97R FOG
IOWA CITY      CLOUDY    67  66  97 NW8       29.99R
MT. PLEASANT * CLOUDY    68  66  94 CALM      29.98S
MUSCATINE *    CLOUDY    68  66  94 CALM      29.98R
QUAD CITIES    CLOUDY    66  64  93 W3        29.96R
$$

IAZ062-063-075>077-085>089-095>099-131200-
   SOUTHEAST IOWA

CITY           SKY/WX    TMP DP  RH WIND       PRES   REMARKS
BURLINGTON     CLOUDY    68  67  96 CALM      29.97S
FAIRFIELD *    CLEAR     66  64  94 CALM      29.99S FOG
FORT MADISON * MOCLDY    70  70 100 CALM      29.98F
KEOKUK *       MOCLDY    70  70 100 CALM      29.97S
OSKALOOSA *    CLOUDY    66  64  94 CALM      30.01R FOG
CENTERVILLE *  CLEAR     66  66 100 SW3       30.03R
OTTUMWA        CLOUDY    65  64  97 NW6       30.00R
WASHINGTON *   CLOUDY    68  66  94 NW8       29.99R FOG
$$

ABBREVIATIONS USED IN REMARKS
   TC - TEMPERATURES IN CELSIUS
  WCI - WIND CHILL INDEX
   HX - HEAT INDEX
  VSB - VISIBILITY
$$




USA.gov is the U.S. government's official web portal to all federal, state and local government web resources and services.